Wind_Speed
28 21 19 19 19 20 21 19 17 16 18 20 20 21 20 19 18 18 17 17 17 18 18 19 19 20 20 20 19 19 19 18 18 17 16 16 15 15 15 16 16 16 16 17
30 26 21 21 20 21 21 21 19 18 18 20 21 21 22 20 19 19 18 18 17 18 19 19 20 20 20 20 20 20 20 20 19 19 18 17 17 17 17 18 18 18 19 18
30 27 24 24 23 21 21 21 21 22 21 22 24 24 22 20 20 19 19 19 18 19 19 20 21 21 21 21 21 21 22 21 20 20 20 19 18 18 19 19 20 20 20 19
29 28 29 26 23 23 22 22 23 24 25 26 27 26 24 22 21 20 20 20 20 20 20 21 22 22 22 23 23 22 22 22 22 21 21 21 21 20 20 20 21 21 21 21
30 28 28 27 26 25 24 25 25 25 26 26 27 27 26 23 22 22 22 22 22 22 23 23 23 24 24 24 24 24 24 24 23 23 23 22 23 22 21 21 22 22 22 22
32 29 28 28 26 24 24 28 28 28 28 28 28 27 26 24 23 23 23 23 24 24 25 25 24 25 26 26 25 25 25 25 25 25 24 24 24 23 23 22 23 23 23 23
33 31 29 27 26 25 27 29 29 28 27 26 27 27 26 24 24 24 24 25 25 26 26 27 26 26 27 27 27 27 27 27 27 26 26 25 25 24 24 25 25 25 25 24
33 31 31 30 27 27 28 29 28 28 28 28 28 26 26 26 26 26 27 26 26 26 27 27 27 27 27 27 28 29 29 28 28 27 27 27 26 26 26 26 25 26 26 26
34 35 34 32 31 31 31 30 29 29 30 29 28 28 28 27 27 28 28 28 27 27 27 27 28 28 29 29 30 30 29 29 28 28 28 27 27 27 27 27 26 26 26 26
35 35 35 35 34 33 32 31 30 29 29 29 29 28 28 29 29 29 29 29 28 28 28 29 29 30 29 30 30 30 29 29 29 28 28 28 28 28 28 27 27 27 28 28
37 37 35 36 35 33 31 32 32 30 29 30 30 29 30 30 30 30 30 30 30 30 30 30 30 30 30 31 31 30 29 29 29 29 29 30 29 29 29 28 28 29 29 29
38 38 37 35 34 35 34 33 33 33 32 32 32 32 32 32 31 31 32 31 31 31 31 30 30 30 31 31 30 30 30 30 30 30 30 30 29 30 30 30 30 30 30 31
38 37 36 36 34 35 34 32 33 32 32 33 33 33 33 33 32 33 33 32 32 32 31 31 30 30 30 30 30 30 30 31 31 31 31 30 30 30 31 31 31 31 32 32
37 37 36 35 34 35 35 35 34 34 33 33 33 33 33 33 33 33 33 32 32 32 32 31 31 31 31 30 30 30 31 31 31 31 31 31 31 31 32 32 32 32 33 33
36 37 37 36 35 34 33 34 34 34 34 33 33 33 33 33 33 33 33 32 32 32 32 32 31 31 31 30 30 30 30 30 31 31 31 32 32 32 32 32 32 32 32 32
34 35 35 35 34 35 35 34 33 33 32 32 32 32 33 33 32 32 32 33 33 32 32 32 32 31 30 30 30 30 30 30 31 31 32 32 32 32 32 32 32 32 33 33
34 34 35 33 33 35 35 34 34 33 32 32 32 32 32 32 32 32 33 33 32 32 31 31 31 31 31 31 30 30 30 31 32 32 32 32 32 32 32 33 33 32 33 33
32 34 34 33 33 33 33 33 34 33 33 33 33 33 33 33 33 33 33 32 32 32 32 31 31 31 31 31 31 32 32 32 32 32 32 32 32 32 32 32 32 32 32 33
31 32 33 34 33 34 33 33 34 34 34 34 33 34 34 34 33 33 33 33 32 32 32 31 31 32 32 32 32 32 32 32 32 32 32 33 33 33 32 32 32 32 32 33
30 28 30 32 33 32 33 33 34 34 34 33 33 33 33 33 33 33 32 32 32 31 31 31 32 32 32 32 32 32 32 32 32 32 32 33 32 32 32 32 32 32 32 33
29 28 29 30 31 31 31 31 32 32 32 32 32 32 32 32 32 32 31 31 30 30 31 31 30 30 31 30 30 30 30 30 31 31 31 31 31 31 31 31 32 32 32 32
27 28 28 28 28 28 29 30 30 30 30 30 30 30 30 30 30 30 29 29 28 28 29 29 29 29 29 29 29 29 29 29 29 29 30 30 30 30 30 31 31 31 31 31
26 27 27 26 26 27 28 28 29 29 28 28 28 28 28 28 29 29 28 27 27 27 27 27 27 28 28 28 28 28 28 28 28 28 28 28 29 29 30 30 30 30 30 30
25 25 25 25 26 27 27 28 27 27 27 27 27 27 27 27 27 27 26 26 26 27 27 27 27 27 27 28 27 27 27 27 27 27 27 28 28 29 29 29 29 29 29 28
23 24 24 24 24 24 24 25 25 26 26 26 26 26 26 26 26 26 26 26 26 26 26 27 27 27 27 27 26 26 26 26 26 26 27 28 28 28 29 29 28 28 28 28
22 22 22 23 24 24 24 24 24 24 24 24 25 25 25 25 25 25 25 25 25 25 26 26 26 25 25 25 25 25 26 26 26 26 27 27 28 28 28 27 27 27 28 28
21 21 22 22 22 22 22 22 23 23 23 23 23 23 24 24 24 24 24 24 24 24 24 24 24 24 24 24 24 24 24 25 25 26 26 26 26 26 25 25 26 27 27 28
Wind_Direction
215 214 225 241 241 233 231 227 234 247 262 271 276 277 282 290 296 300 303 304 309 315 319 320 321 323 326 329 331 333 333 333 333 331 325 321 317 314 313 312 310 308 307 305
219 216 219 229 235 234 233 229 230 238 252 261 268 274 279 285 290 295 299 301 302 307 313 315 317 318 322 326 327 328 331 330 328 326 322 318 314 312 311 310 308 307 305 302
223 220 224 227 228 233 236 234 233 235 246 256 262 269 275 282 286 291 294 297 299 302 306 310 313 315 316 317 321 323 324 324 324 323 321 319 315 311 311 310 307 307 306 300
223 222 226 228 230 232 234 235 236 237 241 252 261 268 274 279 284 287 290 293 295 298 302 304 308 310 311 313 314 316 317 318 318 318 318 316 314 312 310 309 307 306 305 302
220 223 229 229 229 230 232 234 236 239 242 250 259 267 273 277 280 283 286 288 290 293 298 300 303 306 307 309 311 311 311 312 311 313 314 313 312 311 310 309 307 306 305 305
220 220 228 233 233 231 233 238 238 240 246 250 257 263 270 276 280 283 285 287 289 291 294 295 298 301 304 306 307 309 309 308 307 307 308 309 310 310 310 310 309 306 303 302
221 221 228 231 231 232 233 237 241 243 248 251 257 262 266 272 277 282 285 287 289 289 291 293 296 299 300 302 303 304 305 305 305 304 305 305 306 306 307 307 307 305 302 300
222 221 229 231 229 232 236 239 243 245 247 252 257 262 268 271 275 280 284 286 288 289 289 291 294 296 298 299 301 302 302 302 301 302 303 303 304 304 305 305 305 305 303 301
222 222 227 232 234 237 241 243 244 246 250 255 258 263 269 273 277 279 282 285 287 287 288 290 292 293 294 296 298 299 299 298 298 299 300 300 301 302 301 303 304 303 302 301
221 223 226 230 235 238 241 243 245 249 251 255 260 264 269 272 275 277 282 284 285 286 287 288 290 290 292 295 295 295 297 297 296 297 298 298 300 302 303 303 303 304 303 302
222 226 227 229 233 237 240 243 246 250 254 258 262 265 268 272 276 279 282 284 284 286 287 287 289 289 291 294 295 296 296 296 296 297 297 299 300 301 302 302 301 301 302 302
224 226 228 231 234 237 243 246 249 253 258 262 265 267 269 272 275 279 281 283 284 286 287 288 290 290 292 293 293 293 294 295 295 296 297 298 300 300 301 301 302 301 301 301
227 229 231 234 236 239 243 247 250 254 259 262 265 268 270 272 275 278 281 282 284 285 286 288 291 292 293 293 292 292 292 293 293 294 295 297 299 299 300 300 300 299 299 300
228 230 232 233 235 239 244 248 253 256 259 263 265 268 271 273 276 278 280 281 283 284 285 287 290 291 292 292 291 292 292 292 292 294 296 297 298 299 299 300 299 299 299 300
228 230 234 237 239 241 244 249 253 257 260 263 266 269 271 273 276 278 280 280 281 282 284 286 288 289 290 290 291 291 292 292 293 294 296 297 298 298 298 299 299 299 299 300
230 232 234 238 239 242 246 249 253 258 261 263 266 268 270 273 275 278 279 279 281 282 283 285 287 288 288 289 291 291 292 293 293 294 295 296 296 297 297 298 299 300 300 300
233 234 237 239 242 244 246 249 253 257 261 263 266 269 270 272 274 277 278 280 282 283 284 285 286 287 288 289 290 291 292 293 294 294 295 295 296 297 298 299 300 301 301 301
233 236 237 240 243 245 246 249 253 256 260 263 266 269 271 272 273 275 277 279 281 282 283 284 286 287 288 289 290 291 292 293 294 294 294 295 296 298 299 300 300 301 301 302
236 237 237 239 242 245 247 251 254 257 260 263 266 269 271 272 274 275 277 278 280 281 282 283 285 286 287 289 290 292 293 293 293 294 294 295 296 297 299 300 301 302 302 303
236 240 242 242 243 247 250 252 255 257 261 264 267 268 270 272 273 276 278 278 278 280 282 284 285 286 287 289 290 291 292 292 293 293 294 295 296 297 298 299 300 302 302 303
238 242 244 245 247 248 251 253 256 259 263 265 267 269 270 272 274 276 278 279 279 280 282 284 285 286 288 289 291 292 293 293 294 294 294 296 297 298 298 299 300 302 303 302
242 242 244 246 248 249 252 254 257 260 263 265 267 268 270 272 274 276 278 280 281 282 283 284 285 285 287 289 290 292 294 294 295 295 296 296 297 298 299 301 301 302 302 302
240 241 243 245 248 252 254 256 258 261 263 264 266 269 271 273 275 276 277 279 282 283 284 285 285 285 287 290 292 294 296 297 297 297 297 299 299 299 299 300 301 301 302 302
240 243 245 247 249 252 255 257 258 260 262 264 265 268 271 274 275 275 276 279 280 283 284 285 286 287 289 291 293 294 295 296 298 298 299 301 302 302 301 301 302 302 302 303
239 241 244 247 249 251 253 255 258 260 263 265 267 269 272 275 276 277 279 280 281 283 285 286 286 287 290 292 293 295 296 297 297 298 300 301 302 303 303 303 303 303 303 305
239 242 246 249 251 252 255 256 259 262 265 267 268 271 274 276 277 279 280 281 281 284 286 288 287 288 290 292 293 294 296 297 298 299 301 302 304 304 304 303 303 303 304 305
241 243 247 249 250 252 255 258 261 264 267 268 269 272 274 276 278 279 281 283 284 286 288 289 290 291 292 293 294 295 296 297 298 300 301 302 303 305 306 306 306 306 307 308
Height
5899 5904 5908 5910 5912 5914 5917 5920 5922 5922 5921 5919 5918 5917 5917 5917 5917 5916 5916 5915 5913 5912 5910 5907 5905 5903 5900 5898 5896 5893 5891 5889 5886 5884 5882 5880 5879 5877 5875 5874 5872 5871 5869 5868
5893 5898 5901 5905 5908 5910 5913 5915 5917 5918 5917 5916 5913 5913 5914 5915 5914 5914 5913 5912 5910 5909 5907 5905 5903 5901 5898 5896 5894 5891 5889 5887 5885 5882 5880 5878 5876 5874 5872 5871 5869 5868 5866 5864
5887 5893 5896 5899 5903 5906 5908 5910 5913 5913 5914 5911 5910 5910 5910 5911 5911 5910 5909 5908 5907 5906 5904 5902 5900 5898 5896 5894 5891 5889 5886 5884 5882 5879 5877 5875 5873 5871 5869 5867 5866 5864 5862 5860
5882 5887 5889 5895 5898 5901 5903 5905 5906 5907 5908 5907 5906 5905 5906 5907 5907 5906 5905 5904 5903 5902 5900 5899 5897 5895 5893 5890 5888 5886 5883 5881 5878 5876 5874 5871 5869 5867 5865 5863 5861 5860 5858 5855
5875 5880 5884 5888 5891 5894 5897 5898 5900 5901 5901 5902 5901 5901 5902 5903 5902 5902 5901 5900 5899 5898 5896 5895 5893 5891 5889 5887 5885 5882 5880 5877 5874 5872 5870 5868 5865 5863 5861 5859 5857 5855 5853 5851
5869 5873 5877 5882 5885 5887 5891 5891 5892 5894 5895 5896 5895 5896 5897 5897 5897 5897 5896 5895 5894 5893 5891 5889 5888 5886 5884 5882 5880 5877 5875 5873 5870 5868 5866 5863 5861 5859 5856 5854 5852 5850 5848 5846
5862 5867 5870 5874 5877 5880 5884 5885 5885 5887 5888 5890 5890 5891 5891 5891 5891 5891 5891 5890 5889 5887 5886 5884 5883 5881 5879 5877 5875 5873 5870 5868 5865 5863 5861 5858 5856 5853 5851 5849 5847 5845 5843 5841
5856 5861 5866 5866 5869 5872 5875 5876 5878 5879 5881 5883 5884 5884 5885 5886 5886 5886 5885 5884 5883 5882 5880 5879 5877 5875 5873 5871 5869 5867 5865 5862 5860 5858 5855 5853 5851 5848 5846 5844 5841 5839 5837 5835
5849 5854 5856 5859 5862 5864 5867 5870 5872 5873 5875 5877 5878 5879 5880 5880 5880 5879 5879 5878 5877 5876 5874 5873 5871 5869 5867 5865 5863 5861 5858 5856 5854 5852 5849 5847 5845 5842 5840 5838 5835 5833 5831 5829
5840 5844 5848 5852 5855 5857 5859 5863 5865 5866 5869 5870 5871 5873 5873 5873 5873 5872 5872 5871 5870 5869 5868 5866 5864 5862 5860 5858 5856 5853 5851 5849 5847 5845 5843 5840 5838 5836 5833 5831 5828 5826 5824 5822
5832 5836 5839 5843 5847 5850 5852 5855 5858 5860 5861 5863 5865 5866 5866 5866 5866 5865 5865 5864 5863 5862 5861 5859 5857 5855 5853 5851 5849 5847 5845 5842 5840 5839 5836 5834 5832 5829 5827 5824 5822 5819 5817 5815
5824 5829 5833 5837 5840 5843 5846 5849 5851 5854 5855 5856 5857 5858 5859 5859 5859 5858 5857 5856 5855 5854 5853 5851 5850 5848 5846 5844 5842 5840 5838 5835 5833 5831 5829 5827 5824 5822 5819 5817 5814 5812 5809 5807
5817 5821 5825 5829 5833 5836 5839 5842 5844 5846 5847 5848 5849 5850 5851 5851 5851 5850 5849 5848 5847 5846 5845 5844 5842 5840 5838 5836 5834 5832 5830 5828 5826 5824 5822 5819 5817 5815 5812 5810 5807 5804 5802 5799
5810 5815 5818 5821 5825 5828 5832 5834 5836 5838 5840 5841 5842 5842 5842 5843 5843 5842 5841 5840 5839 5838 5837 5836 5834 5833 5831 5829 5827 5824 5822 5820 5818 5816 5814 5811 5809 5807 5804 5802 5799 5796 5794 5791
5802 5806 5810 5812 5817 5821 5824 5827 5829 5830 5832 5833 5834 5834 5834 5835 5834 5834 5833 5832 5831 5830 5829 5827 5826 5825 5823 5821 5819 5817 5815 5812 5810 5808 5806 5804 5801 5799 5796 5793 5791 5788 5785 5782
5794 5798 5802 5806 5809 5813 5816 5819 5820 5822 5824 5825 5826 5826 5826 5826 5826 5825 5825 5824 5823 5822 5821 5819 5818 5816 5815 5813 5811 5809 5807 5804 5802 5800 5798 5796 5793 5791 5788 5785 5783 5780 5777 5774
5787 5791 5796 5798 5802 5805 5808 5811 5813 5815 5816 5817 5818 5818 5818 5818 5818 5817 5816 5816 5815 5814 5812 5811 5809 5808 5806 5805 5803 5801 5799 5796 5794 5792 5790 5787 5785 5782 5780 5777 5774 5771 5769 5765
5780 5784 5788 5792 5795 5797 5800 5803 5805 5807 5808 5809 5809 5810 5810 5810 5809 5809 5808 5807 5806 5805 5804 5802 5801 5800 5798 5796 5794 5792 5790 5788 5786 5783 5781 5778 5776 5773 5771 5768 5765 5763 5760 5757
5774 5777 5780 5784 5787 5789 5792 5795 5797 5799 5800 5800 5801 5801 5801 5801 5800 5800 5799 5798 5797 5796 5795 5794 5792 5791 5789 5788 5786 5783 5781 5779 5777 5774 5772 5769 5767 5765 5762 5760 5757 5754 5751 5748
5768 5770 5773 5776 5778 5781 5784 5786 5788 5790 5791 5792 5792 5792 5792 5792 5791 5791 5790 5789 5788 5787 5786 5785 5783 5782 5781 5779 5777 5775 5772 5770 5768 5766 5763 5761 5758 5756 5753 5751 5748 5745 5742 5739
5762 5765 5767 5769 5772 5774 5776 5778 5780 5781 5783 5783 5784 5784 5784 5783 5782 5782 5781 5780 5779 5778 5777 5776 5775 5773 5772 5770 5768 5766 5764 5761 5759 5757 5755 5752 5750 5747 5745 5742 5740 5737 5734 5731
5755 5758 5760 5763 5765 5767 5769 5771 5772 5773 5775 5775 5775 5775 5775 5775 5774 5773 5773 5772 5771 5770 5769 5768 5767 5765 5764 5762 5760 5758 5756 5753 5751 5749 5746 5744 5742 5739 5736 5734 5731 5728 5726 5722
5749 5752 5754 5757 5759 5761 5762 5764 5765 5766 5767 5767 5767 5768 5767 5767 5766 5766 5765 5765 5764 5763 5761 5760 5759 5757 5756 5754 5752 5750 5748 5746 5743 5741 5738 5736 5734 5731 5728 5726 5723 5720 5717 5714
5744 5746 5748 5751 5753 5754 5755 5756 5757 5758 5759 5760 5760 5760 5760 5760 5759 5759 5758 5757 5756 5755 5754 5753 5751 5750 5748 5746 5745 5742 5740 5738 5736 5734 5731 5729 5726 5724 5721 5718 5715 5712 5709 5706
5738 5741 5743 5745 5746 5747 5749 5750 5751 5751 5752 5753 5753 5753 5752 5752 5752 5751 5750 5750 5749 5748 5746 5745 5744 5742 5741 5739 5737 5735 5733 5731 5729 5727 5724 5722 5719 5716 5714 5711 5708 5705 5702 5699
5734 5735 5737 5739 5740 5742 5743 5743 5744 5745 5745 5746 5746 5745 5745 5745 5744 5744 5743 5742 5741 5740 5739 5738 5737 5735 5733 5732 5730 5728 5726 5724 5722 5720 5717 5715 5712 5709 5706 5703 5701 5698 5695 5692
5728 5730 5732 5733 5734 5735 5736 5737 5738 5738 5739 5739 5739 5739 5738 5738 5738 5737 5736 5736 5735 5733 5732 5731 5730 5728 5726 5725 5723 5721 5719 5717 5715 5712 5710 5708 5705 5702 5699 5696 5693 5691 5688 5685